Tracking 35275 objects as of 9-Sep-2026
HD Live streaming from Space Station
objects crossing your sky now

STARLINK-33917

Track STARLINK-33917 now!
10-day predictions
STARLINK-33917 is classified as:


NORAD ID: 64181
Int'l Code: 2025-113M
Launch date: May 28, 2025
Source: United States (US)
Launch site: AIR FORCE EASTERN TEST RANGE (AFETR)
Your satellite tracking list
Your tracking list is empty




NASA's NSSDC Master Catalog

Two Line Element Set (TLE):
1 64181U 25113M   26251.51196457  .00025824  00000-0  77205-3 0  9991
2 64181  53.1600 321.4006 0001195  80.2432 279.8705 15.34430225 73061
Source of the keplerian elements: AFSPC